Pocatello, ID

3:31 PM MST on January 18, 2018 (GMT -0700)
Pocatello Regional

Weather History for KPIH - April, 2013

Change the Weather History Date:

Friday, April 19, 2013

  Actual Average Record
Temperature  
Mean Temperature 44 °F 46 °F  
Max Temperature 50 °F 59 °F 83 °F (1962)
Min Temperature 37 °F 33 °F 19 °F (1982)
Degree Days  
Heating Degree Days 21 19  
Month to date heating degree days 426 394  
Since 1 July heating degree days 6328 6506  
Cooling Degree Days 0 0  
Month to date cooling degree days 0 0  
Year to date cooling degree days 0 0  
Moisture  
Dew Point 32 °F    
Average Humidity 64    
Maximum Humidity 89    
Minimum Humidity 39    
Precipitation  
Precipitation 0.05 in 0.04 in 0.39 in (2002)
Month to date precipitation 0.36 0.68  
Year to date precipitation 2.16 3.90  
Snow  
Snow 0.00 in - - ()
Month to date snowfall 1.0  
Since 1 July snowfall 35.7  
Snow Depth 0.00 in    
Sea Level Pressure  
Sea Level Pressure 30.07 in    
Wind  
Wind Speed 16 mph (SW)    
Max Wind Speed 25 mph    
Max Gust Speed 32 mph    
Visibility 10 miles    
Events Rain    
T = Trace of Precipitation, MM = Missing Value Source: NWS Daily Summary

Daily Weather History Graph

Daily Weather History Graph

Search for Another Location

Airport or City:

Trip Planner

Search our weather history database for the weather conditions in past years. The results will help you decide how hot, cold, wet, or windy it might be!

Date:

Astronomy

Apr. 19, 2013 Rise Set
Actual Time 6:41 AM MDT 8:17 PM MDT
Civil Twilight 6:11 AM MDT 8:47 PM MDT
Nautical Twilight 5:35 AM MDT 9:24 PM MDT
Astronomical Twilight 4:57 AM MDT 10:02 PM MDT
Moon 1:57 PM MDT (4/19) 3:08 AM MDT (4/19)
Length of Visible Light 14h 35m
Length of Day
13h 36m
Waxing Gibbous, 62% of the Moon is Illuminated
Apr 19
Waxing Gibbous
Apr 25
Full
May 2
Last Quarter
May 9
New
May 17
First Quarter

Hourly Weather History & Observations

Time (MDT) Temp. Windchill Dew Point Humidity Pressure Visibility Wind Dir Wind Speed Gust Speed Precip Events Conditions
12:53 AM 43.0 °F 34.8 °F 19.9 °F 40% 30.19 in 10.0 mi SW 18.4 mph 27.6 mph N/A   Clear
1:53 AM 41.0 °F 33.9 °F 19.9 °F 43% 30.19 in 10.0 mi SSW 12.7 mph - N/A   Clear
2:53 AM 42.1 °F 34.5 °F 21.0 °F 43% 30.18 in 10.0 mi SW 15.0 mph - N/A   Clear
3:53 AM 41.0 °F 33.5 °F 21.0 °F 45% 30.17 in 10.0 mi SW 13.8 mph - N/A   Clear
4:53 AM 39.9 °F 32.5 °F 21.9 °F 49% 30.15 in 10.0 mi SW 12.7 mph - N/A   Clear
5:53 AM 39.0 °F 32.3 °F 23.0 °F 53% 30.16 in 10.0 mi WSW 10.4 mph - N/A   Clear
6:53 AM 37.0 °F 31.0 °F 23.0 °F 57% 30.17 in 10.0 mi SW 8.1 mph - N/A   Scattered Clouds
7:53 AM 42.1 °F 36.1 °F 25.0 °F 51% 30.16 in 10.0 mi SW 10.4 mph - N/A   Partly Cloudy
8:53 AM 44.1 °F 36.8 °F 24.1 °F 45% 30.15 in 10.0 mi SW 16.1 mph - N/A   Clear
9:53 AM 46.9 °F - 25.0 °F 42% 30.14 in 10.0 mi WSW 18.4 mph - N/A   Mostly Cloudy
10:53 AM 46.9 °F - 26.1 °F 44% 30.13 in 10.0 mi WSW 20.7 mph 29.9 mph N/A   Overcast
11:53 AM 46.0 °F 37.6 °F 32.0 °F 58% 30.14 in 8.0 mi WSW 24.2 mph 29.9 mph 0.00 in Rain Light Rain
12:53 PM 43.0 °F 34.5 °F 39.0 °F 86% 30.13 in 7.0 mi SW 19.6 mph - 0.01 in Rain Light Rain
1:53 PM 43.0 °F 35.1 °F 39.0 °F 86% 30.11 in 8.0 mi SW 17.3 mph 24.2 mph 0.03 in Rain Light Rain
2:53 PM 44.1 °F 39.0 °F 39.0 °F 82% 30.07 in 10.0 mi SSW 9.2 mph - 0.01 in   Overcast
3:53 PM 46.0 °F 40.2 °F 39.0 °F 76% 30.02 in 10.0 mi SW 12.7 mph - 0.00 in   Overcast
4:53 PM 48.9 °F - 39.0 °F 69% 29.99 in 10.0 mi SSW 18.4 mph - N/A   Overcast
5:53 PM 48.9 °F - 39.0 °F 69% 29.97 in 10.0 mi SSW 17.3 mph 27.6 mph N/A   Mostly Cloudy
6:53 PM 46.9 °F - 37.9 °F 71% 29.98 in 10.0 mi SSW 17.3 mph 24.2 mph N/A   Overcast
7:53 PM 46.0 °F 38.3 °F 39.9 °F 79% 29.96 in 10.0 mi SW 20.7 mph 24.2 mph N/A   Overcast
8:53 PM 44.1 °F 36.8 °F 39.0 °F 82% 29.96 in 10.0 mi SSW 16.1 mph - 0.00 in Rain Light Rain
9:53 PM 44.1 °F 37.1 °F 37.9 °F 79% 29.97 in 10.0 mi SSW 15.0 mph - 0.00 in   Overcast
10:22 PM 44.6 °F 38.1 °F 39.2 °F 81% 29.99 in 10.0 mi SSW 13.8 mph - N/A   Overcast
10:31 PM 42.8 °F 36.6 °F 37.4 °F 81% 29.99 in 10.0 mi SSW 11.5 mph - N/A   Overcast
10:53 PM 44.1 °F 36.5 °F 39.9 °F 85% 29.96 in 10.0 mi SW 17.3 mph - N/A   Overcast
11:53 PM 43.0 °F 34.8 °F 39.0 °F 86% 29.97 in 10.0 mi WSW 18.4 mph 26.5 mph N/A   Overcast